Home > Weather > Santa Barbara > Past weeks

Flag for U.S.A. Weather for the Past 2 Weeks in Santa Barbara, California, U.S.A.

Now
57 °F

Clear.


Feels Like: 57 °F
Forecast: 53 / 78 °F
Wind: No wind

Location: Santa Barbara Municipal Airport

Current Time: Feb 8, 2016 at 10:30:07 PM

Latest Report: Feb 8, 2016 at 9:53 PM


Visibility: 10 mi

Pressure: 30.13 "Hg

Humidity: 53%

Dew point: 40 °F

Location of Santa BarbaraLocation

Historic Weather in Santa Barbara — Graph

°F

Santa Barbara Temperature Yesterday

Maximum temperature yesterday: 79 °F (at 2:53 PM)
Minimum temperature yesterday: 43 °F (at 4:53 AM)
Average temperature yesterday: 59 °F

High & Low Weather Summary for the Past Weeks

 TemperatureHumidityPressure
High80 °F (Feb 8, 12:53 PM)96% (Jan 31, 6:55 AM)30.38 "Hg (Jan 31, 6:55 AM)
Low35 °F (Feb 2, 5:53 AM)16% (Feb 7, 1:53 PM)29.60 "Hg (Jan 31, 11:53 AM)
Average55 °F59%30.14 "Hg
* Reported Jan 24 8:53 PM — Feb 8 8:53 PM, Santa Barbara, Weather by CustomWeather, © 2016

Note: Actual official high and low records may vary slightly from our data, if they occured in-between our weather recording intervals... More about our weather records

Advertising

Santa Barbara Weather History for the Previous 24 Hours

 ConditionsComfort  
Time TempWeatherWind HumidityBarometerVisibility
8:53 PM
Mon, Feb 8
61 °FClear.3 mph48%30.12 "Hg10 mi
7:53 PM65 °FClear.3 mph36%30.11 "Hg10 mi
6:53 PM68 °FClear.9 mph30%30.10 "Hg10 mi
5:53 PM69 °FClear.7 mph31%30.09 "Hg10 mi
4:53 PM77 °FSunny.3 mph21%30.07 "Hg10 mi
3:53 PM79 °FSunny.7 mph21%30.07 "Hg10 mi
2:53 PM80 °FSunny.8 mph21%30.07 "Hg10 mi
1:53 PM79 °FSunny.8 mph26%30.08 "Hg10 mi
12:53 PM80 °FSunny.8 mph21%30.10 "Hg10 mi
11:53 AM77 °FSunny.8 mph26%30.13 "Hg10 mi
10:53 AM76 °FSunny.5 mph27%30.15 "Hg10 mi
9:53 AM72 °FSunny.6 mph29%30.15 "Hg10 mi
8:53 AM62 °FSunny.No wind44%30.15 "Hg10 mi
7:53 AM50 °FSunny.No wind71%30.12 "Hg10 mi
6:53 AM46 °FSunny.No wind71%30.11 "Hg10 mi
5:53 AM46 °FClear.No wind71%30.11 "Hg10 mi
4:53 AM46 °FClear.No wind71%30.10 "Hg10 mi
3:53 AM46 °FClear.No wind73%30.09 "Hg10 mi
2:53 AM46 °FClear.3 mph73%30.10 "Hg10 mi
1:53 AM48 °FClear.No wind68%30.12 "Hg10 mi
12:53 AM49 °FClear.No wind69%30.12 "Hg10 mi
11:53 PM
Sun, Feb 7
50 °FClear.No wind68%30.13 "Hg10 mi
10:53 PM52 °FClear.No wind64%30.14 "Hg10 mi
Weather by CustomWeather, © 2016

See weather overviewHow to use our weather pages